Tracking 30107 objects as of 18-Jan-2025
HD Live streaming from Space Station
objects crossing your sky now

SL-8 DEB

Track SL-8 DEB now!
10-day predictions


NORAD ID: 12793
Int'l Code: 1981-084C
Perigee: 658.2 km
Apogee: 662.2 km
Inclination: 74.0 °
Period: 97.8 minutes
Semi major axis: 7031 km
RCS: 0.0076 m2 (small)
Launch date: August 28, 1981
Source: Commonwealth of Independent States (former USSR) (CIS)
Launch site: PLESETSK MISSILE AND SPACE COMPLEX (PKMTR)

Note: This is SATELLITE DEBRIS
Your satellite tracking list
Your tracking list is empty




NASA's NSSDC Master Catalog

Two Line Element Set (TLE):
1 12793U 81084C   25017.69671055  .00007321  00000-0  11562-2 0  9997
2 12793  74.0263 113.7537 0002851 276.0691  84.0156 14.72517338292592
Source of the keplerian elements: AFSPC